Regional Weather Roundup
Issued by NWS

Home | Current Version | Previous Version | Graphics & Text | Print | Product List | Glossary On
Versions: 1 2 3 4 5 6 7 8 9 10 11 12 13 14 15 16 17 18 19 20 21 22 23 24 25 26 27 28 29 30 31 32 33 34 35 36 37 38 39 40 41 42 43 44 45 46 47 48 49 50
000
ASUS43 KDTX 250310
RWRMI
MICHIGAN HOURLY REGIONAL WEATHER ROUNDUP
NATIONAL WEATHER SERVICE DETROIT/PONTIAC MI
1000 PM EST FRI NOV 24 2017

NOTE: "FAIR" INDICATES FEW OR NO CLOUDS BELOW 12,000 FEET WITH NO
SIGNIFICANT WEATHER AND/OR OBSTRUCTION TO VISIBILITY.

MIZ047>049-052>055-059>063-066>070-074>076-081>083-250400-
SOUTHEAST LOWER MICHIGAN

CITY           SKY/WX    TMP DP  RH WIND       PRES   REMARKS
ADRIAN         CLOUDY    46  32  58 SW15G23   29.59R
ALMA           CLEAR     49  35  58 SW13      29.46S
ANN ARBOR      PTCLDY    47  33  58 S13       29.57R
BAD AXE        CLEAR     49  33  54 SW14G21   29.45F
CARO           CLEAR     51  34  52 S15G21    29.46F
DETROIT CITY   CLOUDY    48  31  51 SW18G30   29.57F
DETROIT        CLOUDY    49  31  49 SW17      29.58S
FLINT          CLEAR     50  32  50 SW13      29.51S
GROSSE ILE     CLOUDY    46  33  60 SW18      29.57F
HILLSDALE      CLEAR     45  32  61 S13       29.56F
HOWELL         CLEAR     49  33  53 S13G18    29.52F

CITY           SKY/WX    TMP DP  RH WIND       PRES   REMARKS
JACKSON        CLEAR     49  32  52 S14G22    29.54F
LAMBERTVILLE   PTCLDY    51  31  45 SW10G23   29.60R
LANSING        CLEAR     51  34  52 S20G26    29.50F
LAPEER         FAIR      51  32  48 SW16G25   29.51R
MASON          CLEAR     50  33  52 S8        29.51F
MONROE         CLOUDY    51  29  43 SW16G25   29.58R
MT. CLEMENS    MOCLDY    49  32  52 S16G28    29.54F
PONTIAC        MOCLDY    49  32  52 SW18G28   29.53R
PORT HOPE        N/A     50  34  54 S8G17     29.42S
PORT HURON     CLOUDY    48  30  49 S17G25    29.54F
TRI CITIES     CLEAR     52  36  54 SW17G24   29.45F
MIDLAND        FAIR      51  35  55 SW9G17    29.44F
TROY           PTCLDY    51  30  44 S13G22    29.57R
SAGINAW HB     CLEAR     50  34  53 S18       29.45F
$$
MIZ043>046-050>051-056>058-064>065-071>073-077>080-250400-
SOUTHWEST LOWER MICHIGAN

CITY           SKY/WX    TMP DP  RH WIND       PRES   REMARKS
BATTLE CREEK   CLEAR     50  34  54 SW18      29.53S
BENTON HARBOR  PTCLDY    54  34  46 S10G22    29.52R
BIG RAPIDS     MOCLDY    53  37  55 SW16G28   29.41S
COLDWATER      CLEAR     49  31  49 SW15G23   29.56S
FREMONT        CLOUDY    53  40  61 SW17G30   29.44S
HOLLAND        PTCLDY    54  37  52 SW26G39   29.48S
GRAND RAPIDS   PTCLDY    52  37  56 SW18G28   29.47S
IONIA          FAIR      50  35  56 SW10      29.47S
KALAMAZOO      PTCLDY    51  33  50 SW17      29.53S
LUDINGTON      DRIZZLE   51  42  72 SW17      29.41R
MARSHALL       CLEAR     50  32  50 S15G22    29.53F
MOUNT PLEASANT PTCLDY    51  34  52 SW9       29.43S
MUSKEGON       CLOUDY    52  41  66 SW20G36   29.46R
SOUTH HAVEN    PTCLDY    55  34  46 SW15      29.51R
$$
MIZ016>042-250400-
NORTHERN LOWER MICHIGAN

CITY           SKY/WX    TMP DP  RH WIND       PRES   REMARKS
ALPENA         CLEAR     52  36  54 SW9       29.34S
BEAVER ISLAND  LGT RAIN  45  44  95 NW7G16    29.38R
BELLAIRE       CLOUDY    54  42  65 SW5       29.37R
CADILLAC       CLOUDY    50  38  63 SW13      29.39R
CHARLEVOIX     RAIN      48  45  88 W17G25    29.39R
FRANKFORT      CLOUDY    50  45  83 W3        29.41R
GAYLORD        CLOUDY    51  37  58 SW12      29.34R
GRAYLING       MOCLDY    50  34  54 SW10      29.37R
HARBOR SPRINGS LGT RAIN  49  46  91 W10G18    29.36R
HOUGHTON LAKE  CLOUDY    48  34  58 SW13G20   29.39S
MANISTEE       LGT RAIN  53  42  66 SW8       29.40
OSCODA         CLEAR     48  32  53 SW14G22   29.37F
ROGERS CITY    CLOUDY    52  36  54 SW9       29.33R
TRAVERSE CITY  LGT RAIN  54  40  59 SW9       29.37R
$$
MIZ007>008-015-250400-
EASTERN UPPER MICHIGAN

CITY           SKY/WX    TMP DP  RH WIND       PRES   REMARKS
KINROSS        LGT RAIN  44  43  96 W10       29.34R
MACKINAC ISLAN LGT RAIN  46  43  87 W14G20    29.35R
NEWBERRY       LGT RAIN  42  41  97 W8        29.36R
S. S. MARIE    LGT RAIN  45  42  89 W12       29.32R
MUNISING         N/A     45  43  93 NW8       29.38R
$$
MIZ004>006-011>014-085-250400-
CENTRAL UPPER MICHIGAN

CITY           SKY/WX    TMP DP  RH WIND       PRES   REMARKS
MANISTIQUE     MIX PCPN  42  37  81 NW6       29.38R
ESCANABA       LGT RAIN  45  43  93 W3        29.40R
MENOMINEE      LGT RAIN  48  44  86 NW9       29.44R
SAWYER-GWINN   MOCLDY    41  39  93 W9        29.40R
$$
MIZ001>003-009>011-084-250400-
WESTERN UPPER MICHIGAN

CITY           SKY/WX    TMP DP  RH WIND       PRES   REMARKS
IRON MOUNTAIN  CLOUDY    44  39  82 W12G18    29.43R
HOUGHTON       CLOUDY    40  35  83 NW16      29.42R WCI  31
COPPER HARBOR    N/A     42  35  76 N29G35    29.39R
IRONWOOD       CLOUDY    38  35  89 W12       29.53R WCI  30
$$

ABBREVIATIONS USED IN REMARKS
   TC - TEMPERATURE IN CELSIUS
  WCI - WIND CHILL INDEX
   HX - HEAT INDEX
  VSB - VISIBILITY





USA.gov is the U.S. government's official web portal to all federal, state and local government web resources and services.